Regional Weather Roundup
Issued by NWS San Angelo, TX

Home | Current Version | Previous Version | Text Only | Print | Product List | Glossary On
Versions: 1 2 3 4 5 6 7 8 9 10 11 12 13 14 15 16 17 18 19 20 21 22 23 24 25 26 27 28 29 30 31 32 33 34 35 36 37 38 39 40 41 42 43 44 45 46 47 48 49 50
000
ASUS44 KSJT 180510
RWRSJT
WEST CENTRAL TEXAS REGIONAL WEATHER ROUNDUP
NATIONAL WEATHER SERVICE SAN ANGELO TX
1100 PM CST WED DEC 17 2014

NOTE: "FAIR" INDICATES FEW OR NO CLOUDS BELOW 12,000 FEET WITH NO
SIGNIFICANT WEATHER AND/OR OBSTRUCTIONS TO VISIBILITY.

TXZ049-054-064>066-071>073-076>078-098-099-113-114-127-128-139-140-
154-155-168>170-180600
...LOCATIONS ACROSS WEST CENTRAL TEXAS...

CITY           SKY/WX    TMP DP  RH WIND       PRES   REMARKS
SAN ANGELO     CLOUDY    47  46  97 S7        30.09R
ABILENE        CLOUDY    49  45  86 SE7       30.08R
DYESS AFB      CLOUDY    50  46  84 S7        30.06R
JUNCTION       CLOUDY    51  51 100 SE5       30.10F FOG
SWEETWATER     CLEAR     47  47 100 S12       30.09R
BROWNWOOD      CLOUDY    48  46  93 SE3       30.12R FOG
COLEMAN        CLOUDY    48  48 100 CALM      30.11R FOG
SONORA         CLOUDY    54  52  94 CALM      30.15R
OZONA          CLOUDY    39  37  93 CALM      30.14R
BRADY          CLOUDY    48  48 100 S3        30.09S
$$

TEXAS PANHANDLE/OKLAHOMA PANHANDLE

CITY           SKY/WX    TMP DP  RH WIND       PRES   REMARKS
AMARILLO       FOG       37  37 100 S14       30.02R VSB 3/4 WCI  28
BORGER         CLOUDY    38  35  89 S7        30.02R WCI  33
CANADIAN       LGT RAIN  37  37  97 S7        30.05S WCI  32
DALHART        CLOUDY    37  34  89 NE12      30.00R FOG     WCI  29
DUMAS          CLOUDY    36  34  94 S10       29.98R WCI  28
GUYMON         NOT AVBL
HEREFORD       PTCLDY    35  34  97 S8        30.00S WCI  29
PAMPA          DRIZZLE   35  34  97 S12       30.01F WCI  26
PERRYTON       CLOUDY    35  34  96 S9        30.03R WCI  28
$$

SOUTHERN PANHANDLE/SOUTH PLAINS/ROLLING PLAINS

CITY           SKY/WX    TMP DP  RH WIND       PRES   REMARKS
LUBBOCK        PTCLDY    41  40  96 SE9       30.03R WCI  35
SNYDER         CLEAR     45  44  96 S7        30.06R
CHILDRESS      FOG       39  38  96 SE8       30.09R VSB 3/4 WCI  33
SEMINOLE       CLEAR     46  31  56 W7        30.06R
$$

PERMIAN BASIN

CITY           SKY/WX    TMP DP  RH WIND       PRES   REMARKS
MIDLAND        CLEAR     48  42  80 SW8       30.07R
ODESSA         CLEAR     47  39  74 S6        30.08R
WINK           CLEAR     47  27  45 S10       30.07R
$$

FAR WEST/SOUTHWEST MOUNTAINS/TRANS PECOS

CITY           SKY/WX    TMP DP  RH WIND       PRES   REMARKS
ALPINE         CLEAR     40  27  60 S8        30.19R WCI  34
DRYDEN           N/A     50  46  86 CALM      30.09S
EL PASO        PTCLDY    47  35  63 E5        30.13R
FORT STOCKTON  CLEAR     49  29  46 SW6       30.10R
GUADALUPE PASS NOT AVBL
MARFA          CLEAR     30  21  69 N5        30.16S WCI  25
PECOS          CLEAR     47  28  48 SW8       30.10R
$$

DALLAS/FORT WORTH METROPLEX

CITY           SKY/WX    TMP DP  RH WIND       PRES   REMARKS
DFW AIRPORT    LGT RAIN  41  40  96 E7        30.16S FOG     WCI  36
FTW MEACHAM    CLOUDY    44  42  93 E7        30.16R FOG
DAL-EXECUTIVE  LGT RAIN  44  41  89 E7        30.16S FOG
GRAND PRAIRIE  CLOUDY    43  43 100 E13       30.17F WCI  36
ADDISON        RAIN      42  42 100 E6        30.18S WCI  38
MESQUITE       CLOUDY    40  40  99 NE5       30.19R WCI  37
LANCASTER      DRIZZLE   42  40  92 NE3       30.20R
$$

NORTH CENTRAL TEXAS

CITY           SKY/WX    TMP DP  RH WIND       PRES   REMARKS
SHRMAN/DENISON CLOUDY    38  38 100 E6        30.18F WCI  34
GAINESVILLE    CLOUDY    38  37  98 E9        30.18F WCI  31
BRIDGEPORT     CLOUDY    40  40 100 E7        30.16F WCI  36
DENTON         CLOUDY    40  39  97 E7        30.17S FOG     WCI  35
WAXAHACHIE     LGT RAIN  42  42 100 NE8       30.18R WCI  37
GRANBURY       CLOUDY    45  43  93 E3        30.17S FOG
$$

WESTERN NORTH TEXAS

CITY           SKY/WX    TMP DP  RH WIND       PRES   REMARKS
WICHITA FALLS  CLOUDY    40  38  93 SE7       30.13R WCI  35
VERNON         CLOUDY    41  37  86 SE6       30.13R WCI  38
BRECKENRIDGE   CLOUDY    46  44  95 E7        30.11R
COMANCHE       CLOUDY    45  45 100 E5        30.13R FOG
$$

CENTRAL AND SOUTH CENTRAL TEXAS

CITY           SKY/WX    TMP DP  RH WIND       PRES   REMARKS
AUSTIN/BERGSTM CLOUDY    53  50  89 N8        30.12R
WACO           CLOUDY    46  44  93 N7        30.16R
HILLSBORO      CLOUDY    44  42  91 NE6       30.16R FOG
TEMPLE         CLOUDY    46  41  81 N9        30.13
KILLEEN-GRAY   CLOUDY    46  45  93 N6        30.13S FOG
FORT HOOD      CLOUDY    46  46 100 N7        30.13S FOG
GEORGETOWN     CLOUDY    48  46  93 N8        30.13R
LAGO VISTA     DRZL/FOG  50  48  94 N6        30.12S VSB 1/2
SAN MARCOS     CLOUDY    54  50  87 N7        30.11R
NEW BRAUNFELS  CLOUDY    57  53  86 N6        30.09R
RANDOLPH AFB   CLOUDY    57  54  88 N5        30.10R
SAN ANTONIO    DRIZZLE   58  55  90 N5        30.10R FOG
STINSON        CLOUDY    59  54  83 CALM      30.08R
PLEASANTON     NOT AVBL
LA GRANGE      CLOUDY    61  59  94 CALM      30.08S
GIDDINGS       CLOUDY    54  51  89 N3        30.14F
$$

EAST TEXAS

CITY           SKY/WX    TMP DP  RH WIND       PRES   REMARKS
PARIS          CLOUDY    37  36  93 E8        30.22S WCI  31
CLARKSVILLE    NOT AVBL
TYLER          CLOUDY    45  42  89 NE9       30.17S
LONGVIEW       CLOUDY    44  41  89 E6        30.19S
PALESTINE      CLOUDY    46  45  95 CALM      30.17R
NACOGDOCHES    CLOUDY    46  45  93 CALM      30.19R
$$

TEXAS HILL COUNTRY AND EDWARDS PLATEAU

CITY           SKY/WX    TMP DP  RH WIND       PRES   REMARKS
LLANO          CLOUDY    48  48 100 CALM      30.16S
HORSESHOE BAY  FOG       49  49 100 CALM      30.13R VSB 1/2
KERRVILLE      DRZL/FOG  51  50  96 CALM      30.13R VSB 1
FREDERICKSBRG  FOG       51  51  98 CALM      30.11R VSB 1/4
ROCKSPRINGS    FOG       54  54 100 CALM      30.12S VSB 1/4
HONDO          CLOUDY    58  56  93 N5        30.11R FOG
UVALDE         CLOUDY    55  55  99 CALM      30.10S FOG
DEL RIO        CLOUDY    54  50  86 CALM      30.09S
$$

SOUTHEAST TEXAS

CITY           SKY/WX    TMP DP  RH WIND       PRES   REMARKS
COLLEGE STN    CLOUDY    54  51  90 N6        30.11S
CALDWELL       CLOUDY    48  48 100 N9        30.15R
CROCKETT       CLOUDY    52  48  87 NE6       30.17S
BRENHAM        MOCLDY    60  57  89 SE8       30.11R
HUNTSVILLE     CLOUDY    56  49  77 CALM      30.12S
CONROE         CLOUDY    57  51  80 SE6       30.14R
HOUSTON BUSH   CLOUDY    57  54  89 E7        30.12R
HOUSTON HOBBY  MOCLDY    61  57  88 NE6       30.11S
PERLAND        LGT RAIN  63  61  93 E7        30.12R
WHARTON          N/A     61  59  94 CALM      30.11R
$$

THE UPPER TEXAS COAST

CITY           SKY/WX    TMP DP  RH WIND       PRES   REMARKS
ORANGE         CLOUDY    56  48  74 E6        30.16R
PORT ARTHUR    MOCLDY    58  51  78 E7        30.13F
GALVESTON      CLOUDY    66  64  93 E10       30.12R
ANGLETON       CLOUDY    65  63  93 SE8       30.10R
BAY CITY         N/A     65  65  98 E3        30.09R
$$

TEXAS COASTAL BEND, RIO GRANDE PLAINS DEEP SOUTH TEXAS

CITY           SKY/WX    TMP DP  RH WIND       PRES   REMARKS
VICTORIA       MOCLDY    64  62  93 NW5       30.09R FOG
BEEVILLE       CLOUDY    66  66  99 CALM      30.07R
ROCKPORT       CLOUDY    68  65  90 SE5       30.06S
PORT ARANSAS   CLOUDY    67  65  93 SE6       30.06S
PORT LAVACA    CLOUDY    65  64  95 E3        30.08S
CORPUS CHRISTI CLOUDY    69  66  90 SE7       30.06S
KINGSVILLE NAS CLOUDY    69  68  96 E3        30.05R
COTULLA        CLOUDY    58  53  84 N7        30.08S
LAREDO         NOT AVBL
BROWNSVILLE    LGT RAIN  72  68  87 S8        30.05R
PORT ISABEL    LGT RAIN  71  67  87 SE5       30.04S
HEBBRONVILLE   CLOUDY    68  65  89 CALM      30.06S
MCALLEN        MOCLDY    71  67  87 SE9       30.03S
WESLACO        MOCLDY    70  65  85 SE8       30.02F
FALFURRIAS     CLOUDY    71  65  83 CALM      30.04R
EDINBURG       MOCLDY    72  66  82 S6        30.03R
$$



USA.gov is the U.S. government's official web portal to all federal, state and local government web resources and services.